User: anonymous
Location: Unspecified
(0.0000°N, 0.0000°E)
Time: 19:09:41
(UTC+00:00)
Language:

Transit 2A Rocket - Orbit

View from above orbital plane
View from above orbital plane
View from above satellite
View from above satellite

Ground track
Ground track

The orbit data is extracted from the following two-line orbital elements,

1 00047U 60007C   14234.74607827  .00000151  00000-0  59844-4 0  2836
2 00047 066.6663 076.8087 0223946 056.8132 305.4229 14.41192403828678
Epoch (UTC): 22 August 2014 17:54:21
Eccentricity: 0.0223946
inclination: 66.6663°
perigee height: 595 km
apogee height: 914 km
right ascension of ascending node: 76.8087°
argument of perigee: 56.8132°
revolutions per day: 14.41192403
mean anomaly at epoch: 305.4229°
orbit number at epoch: 82867

The dashed part of the orbit path shows where the satellite is in the earth's shadow,  

DLR